Location: Cactus School
(34.5700°N, 118.0931°W)
Time: 23:49:53
(UTC-07:00)

Transit 4A - Pass Details

Date: 22 April 2024
Orbit: 871 x 971 km, 66.8° (Epoch: 17 May)

Event Time Altitude Azimuth Distance (km) Brightness Sun altitude
Rises 13:25:06 0° 228° (SW) 3,547 11.2 66.7°
Reaches altitude 10° 13:27:50 10° 237° (WSW) 2,592 10.7 66.5°
Maximum altitude 13:33:20 37° 303° (WNW) 1,373 9.3 66.0°
Drops below altitude 10° 13:38:44 10° 9° (N) 2,547 10.1 65.5°
Sets 13:41:25 0° 18° (NNE) 3,479 10.6 65.2°
